ATS 1

operational
NORAD ID: 2608 Int'l Des: 1966-110 Owner: GSFC Country: US
MEOCIRCULAR

About ATS 1

Description loading...

Live Position

Loading 3D Globe...

Upcoming Passes

Altitude History

Altitude vs Time

uPlot chart will show altitude changes over time

Two-Line Element Set

1 2608U 66110A 26061.44904628 -.00000323 00000-0 00000+0 0 9990
2 2608 4.7055 70.9499 0007002 193.2530 192.1178 1.00333537133730
Epoch: Mar 2, 2026 • Age: 41 hours

Current Status

Altitude 35761.3 km
Velocity 3.08 km/s
Sub-Earth Point 4.19°N, 134.73°E
Type other

Large Constellations

Loading constellations...